Theta_e
317 315 315 315 314 314 315 314 314 314 314 315 315 315 315 316 316 317 317 318 318 317 318 319 320 321 321 315 314 325 344 347 338 336 321 320 316 317 312 316 318 317 319 320 323 326 330
316 316 315 315 314 314 314 314 314 314 314 314 315 315 316 316 316 317 317 317 317 316 317 318 320 321 319 308 321 326 332 336 330 328 320 319 316 318 315 316 317 319 319 320 323 327 331
316 315 315 314 314 314 314 314 313 313 314 314 314 314 315 315 315 316 317 316 315 315 317 319 322 321 317 313 322 324 326 326 329 327 320 320 320 316 317 316 320 321 319 323 325 329 329
315 315 314 314 314 314 313 314 313 313 313 313 314 313 313 314 314 315 315 314 314 317 319 322 323 324 314 323 327 323 325 325 327 330 324 323 321 318 317 321 319 319 320 316 325 328 330
315 315 315 314 315 315 314 313 313 313 313 313 313 313 314 314 314 314 313 313 316 321 322 323 324 323 313 326 323 327 328 321 323 323 323 321 319 316 316 314 315 318 313 315 321 328 328
314 313 314 314 314 314 314 313 313 313 313 313 313 313 313 313 313 311 311 313 319 323 325 327 326 318 321 316 324 323 329 322 320 320 317 316 315 312 313 312 308 312 313 315 316 325 327
314 314 314 313 313 313 314 313 313 312 312 313 313 313 312 312 311 310 311 314 315 316 322 316 316 317 316 321 323 321 325 319 319 316 309 312 308 306 311 315 316 316 316 315 319 326 324
314 314 313 313 313 313 313 313 313 312 312 312 313 312 312 311 310 309 311 307 307 306 303 311 311 312 317 319 311 316 324 315 314 309 311 308 304 311 313 314 314 315 314 315 319 325 324
314 313 313 313 313 313 314 314 313 312 312 312 312 311 311 310 309 310 308 310 311 310 303 308 311 310 312 314 311 313 319 317 312 309 309 306 308 311 311 311 312 315 314 315 317 322 325
314 314 314 314 313 313 314 313 313 312 312 312 312 311 310 308 307 308 309 313 313 311 302 307 308 313 314 315 309 317 319 316 313 309 310 308 311 308 308 308 313 311 317 317 317 317 312
315 314 314 314 314 313 313 313 312 312 311 311 311 310 309 307 307 306 309 311 312 310 294 308 310 320 317 313 313 313 319 316 310 310 311 307 307 306 306 308 312 312 318 317 317 316 316
314 314 314 314 313 313 313 312 312 312 311 311 311 309 308 309 310 309 311 311 312 301 293 304 311 310 310 313 312 313 313 317 317 311 312 310 313 310 309 311 313 316 315 316 316 314 308
314 314 313 313 312 312 312 312 312 311 311 310 309 306 307 309 305 311 311 306 298 295 305 303 305 310 308 307 309 311 309 308 308 304 305 308 308 310 310 308 312 313 312 305 304 304 304
315 314 314 313 313 312 312 312 312 311 311 309 306 304 309 309 313 311 307 299 293 299 301 307 307 308 305 307 308 309 307 305 310 310 306 303 300 308 310 309 308 310 312 306 300 301 305
315 314 314 313 312 312 312 312 311 311 310 308 305 307 306 311 312 310 302 292 296 300 304 303 305 304 305 307 306 308 307 306 308 311 305 304 303 311 310 311 312 309 308 315 309 310 306
315 314 314 313 313 312 312 311 311 311 309 307 304 304 304 311 314 307 297 292 299 302 304 306 301 305 302 305 304 306 307 310 308 312 315 310 303 310 310 311 312 311 315 307 309 302 300
313 313 312 312 312 312 311 311 311 310 308 307 304 297 309 316 313 303 293 296 299 302 303 303 302 303 304 304 305 305 305 309 311 311 315 313 307 306 309 306 306 308 308 310 311 308 303
313 313 313 312 312 312 311 311 310 309 307 305 300 293 309 312 300 300 297 300 297 300 302 302 304 303 303 305 304 304 304 307 311 313 310 314 310 303 303 309 311 311 309 311 305 306 308
312 312 311 311 311 311 310 310 309 308 307 304 297 297 308 307 292 295 300 299 301 300 300 300 300 302 304 303 301 304 305 309 309 309 310 313 308 302 303 306 309 306 309 310 311 312 309
311 311 311 311 310 310 310 310 309 308 307 304 298 292 299 304 301 297 297 297 297 302 301 302 302 303 301 301 305 302 304 307 309 309 322 313 309 305 301 305 308 304 305 308 308 306 307
309 310 310 310 310 310 310 310 309 308 308 304 298 294 299 292 297 299 300 299 296 296 302 304 301 302 301 299 301 301 305 307 310 315 313 310 308 310 309 309 309 307 306 306 305 307 305
309 309 309 309 309 309 309 310 309 308 307 301 294 295 298 295 296 294 294 293 295 297 300 299 301 301 303 301 303 302 304 306 305 309 310 313 309 312 308 310 310 307 309 308 307 307 307
309 309 309 309 309 309 309 309 309 307 305 300 301 300 295 292 291 291 292 294 294 298 300 301 301 301 301 305 308 310 311 312 312 309 310 311 310 310 305 309 309 304 309 310 310 309 308
309 309 309 309 309 309 308 308 308 308 306 303 302 300 291 289 291 290 292 294 294 295 294 298 300 298 304 308 308 309 310 311 311 312 315 313 313 311 306 309 299 309 315 314 312 311 311
308 309 309 309 309 309 309 308 308 308 307 303 304 297 292 287 291 291 291 292 295 296 296 296 298 303 306 303 300 301 303 306 307 310 312 315 313 308 304 302 307 310 315 312 310 309 314
308 308 308 308 309 309 309 308 308 308 308 305 304 304 296 290 290 294 292 293 292 293 294 296 302 305 303 299 300 297 296 301 301 306 314 315 316 310 307 301 299 311 315 319 319 308 316
308 308 308 308 308 308 308 308 308 307 308 305 304 307 299 290 296 296 292 292 296 296 295 297 296 298 306 302 298 299 299 306 300 303 307 310 311 306 307 304 307 315 315 320 307 309 322
307 308 308 308 308 308 308 308 308 307 305 305 302 306 299 293 294 298 299 294 293 293 293 297 295 299 300 301 301 301 302 305 304 309 309 308 307 305 307 305 302 315 316 312 319 326 326
307 307 307 308 307 308 308 307 307 306 305 305 299 308 308 297 295 302 303 304 302 300 296 297 296 297 298 299 304 307 306 309 307 301 315 307 311 308 310 310 316 318 314 319 324 326 327
Wind_Speed
18 19 19 19 19 20 21 21 21 22 22 22 22 22 23 23 23 23 23 22 22 22 21 18 16 11 8 9 15 5 8 10 14 18 17 19 20 18 17 10 10 12 11 7 9 7 12
18 19 20 20 20 20 21 22 22 22 22 22 23 23 22 23 24 24 22 22 23 23 22 18 13 6 7 16 2 6 7 10 10 19 20 20 15 20 10 11 11 0 6 8 5 10 12
17 18 18 19 19 19 21 21 22 23 23 23 23 23 23 24 26 27 26 24 24 25 22 18 9 8 9 19 2 8 9 8 9 19 18 21 17 17 14 10 11 7 7 5 9 13 10
17 18 19 19 18 19 20 21 21 22 22 23 24 25 25 26 27 27 27 26 26 21 11 8 10 8 10 1 3 12 13 12 8 14 17 13 21 16 16 3 8 14 12 11 11 14 8
18 18 18 19 18 18 19 20 22 21 21 21 23 25 26 27 28 27 27 28 18 3 3 10 9 8 8 7 9 8 11 10 10 11 11 11 15 16 17 15 15 14 14 13 12 14 8
18 18 19 19 19 18 19 20 21 21 22 22 22 23 25 26 29 29 30 24 2 7 7 6 6 7 7 6 9 2 7 9 11 15 12 16 13 15 15 18 17 18 18 14 13 16 12
18 18 18 19 19 19 18 19 21 22 22 23 23 24 25 26 28 27 19 4 7 9 10 11 3 13 4 7 6 6 9 14 11 18 14 19 19 21 23 22 20 17 15 14 15 15 17
17 17 18 19 19 19 19 19 20 21 24 24 24 25 27 28 28 27 10 7 5 6 13 16 23 24 19 10 9 15 12 16 15 18 18 17 22 21 22 21 23 20 18 17 13 8 15
17 17 17 17 18 18 19 19 19 20 21 22 24 24 25 29 31 12 6 3 6 9 10 9 11 11 10 19 18 19 21 19 19 21 21 18 18 21 20 21 24 22 21 18 15 12 15
16 15 15 16 16 17 18 19 18 20 21 22 24 24 23 29 11 10 3 1 9 6 8 6 9 8 9 7 10 19 25 21 17 23 21 21 20 23 19 24 23 24 23 19 16 14 13
15 16 16 16 17 17 18 18 18 19 20 22 24 24 20 13 13 7 5 8 10 6 8 8 9 9 9 10 4 10 20 24 22 19 21 19 22 21 23 23 25 24 21 18 19 17 19
16 16 16 17 17 17 17 18 20 21 22 22 23 25 21 7 8 12 12 9 5 9 10 6 8 12 11 13 6 6 17 22 17 20 17 23 15 20 23 22 22 21 19 16 17 16 19
17 17 16 17 17 17 17 18 20 21 23 25 25 26 21 8 5 5 8 7 9 13 4 10 10 13 10 8 12 13 20 24 20 21 20 20 21 15 18 23 24 22 19 12 16 16 15
17 16 16 16 15 16 17 18 19 21 22 24 29 32 3 9 6 6 7 9 16 5 19 3 5 11 13 9 9 16 19 22 25 22 15 18 22 26 16 27 25 27 25 15 24 16 14
18 17 17 17 16 17 17 18 19 20 20 22 31 8 7 3 7 7 9 17 11 16 11 16 13 14 17 13 7 13 20 22 25 24 23 20 24 23 22 18 27 26 28 24 24 20 18
17 17 17 16 17 16 16 17 18 20 19 22 11 11 7 2 8 8 11 24 21 15 10 12 19 14 17 18 13 12 17 18 22 26 21 12 13 23 23 20 26 27 21 26 21 26 22
17 16 15 15 14 16 15 16 16 16 17 23 9 7 8 3 8 8 16 22 23 22 18 16 20 17 13 12 15 12 8 9 16 21 22 21 12 14 22 27 25 21 19 22 22 22 19
17 16 15 15 15 15 16 15 15 14 14 11 6 7 6 4 9 10 15 17 8 18 23 22 16 19 18 14 15 13 11 9 4 14 25 22 14 16 18 22 26 24 25 24 17 25 19
18 17 16 17 16 16 16 14 13 12 9 9 6 7 1 6 9 13 14 14 14 23 22 24 27 20 18 18 20 17 15 12 11 9 15 20 18 14 19 19 18 22 28 28 25 22 25
19 19 18 18 16 16 15 14 12 11 6 8 7 6 6 8 11 12 16 13 20 18 20 23 21 22 23 23 18 11 12 12 11 16 4 7 18 24 17 21 20 25 24 26 27 23 20
19 18 18 18 18 16 16 14 11 10 4 6 6 5 3 7 6 6 13 15 16 15 15 16 22 21 20 21 21 21 17 12 9 9 7 16 15 15 21 21 19 23 28 30 30 28 29
19 18 17 17 18 17 18 17 13 9 3 7 6 6 4 10 13 15 12 14 15 15 12 16 18 18 22 20 19 18 19 17 17 14 18 15 14 16 22 21 22 27 27 29 30 30 29
19 19 18 18 17 17 16 15 12 8 6 4 3 5 6 8 8 8 11 11 7 11 11 16 15 12 12 9 9 10 11 13 13 15 15 16 13 12 18 22 17 22 27 29 28 31 28
21 20 19 18 18 17 16 15 14 9 13 3 5 2 4 11 10 8 10 12 15 14 17 20 18 14 5 12 16 16 17 18 18 19 16 11 15 14 14 6 16 16 18 26 28 27 30
20 20 20 18 19 18 16 15 15 10 11 5 2 3 4 7 12 14 14 15 14 14 17 18 17 17 13 12 9 12 13 18 23 22 21 18 15 13 14 15 11 14 14 10 17 26 26
21 20 19 18 17 18 16 16 15 12 11 6 5 4 2 4 8 8 10 11 12 10 13 14 8 14 11 8 12 16 16 16 18 20 21 18 17 15 8 15 18 4 11 13 16 15 25
21 19 18 18 16 15 14 14 13 10 8 6 4 10 5 3 11 17 14 13 11 11 9 7 7 8 7 9 13 13 17 19 18 20 19 15 16 17 11 11 7 10 16 6 10 6 24
20 19 17 18 15 14 14 13 13 10 5 2 3 8 5 4 11 20 24 19 11 9 9 8 7 5 4 6 7 11 11 12 16 18 25 18 17 13 11 11 14 10 3 1 12 18 13
19 17 15 14 13 14 14 10 10 8 6 3 4 6 8 6 8 17 21 21 20 21 16 8 9 8 4 4 4 7 5 3 10 12 7 16 14 8 11 1 6 7 2 4 11 10 9
Wind_Direction
8 8 6 6 3 1 358 356 354 352 349 347 344 342 339 336 332 327 323 320 316 315 310 308 306 305 272 244 256 164 162 187 180 197 209 204 208 214 234 233 225 243 270 276 263 195 186
5 4 2 1 359 358 356 354 352 351 349 346 343 339 335 332 329 324 321 319 314 311 305 300 291 266 246 265 0 156 156 159 196 202 208 212 218 217 257 240 230 32 268 277 231 173 172
2 3 1 1 357 356 354 353 352 350 348 345 342 339 335 332 328 322 320 318 314 307 298 289 249 223 247 256 243 182 194 230 216 206 211 215 223 205 221 230 223 214 227 199 176 162 167
0 360 358 357 356 355 353 349 350 347 344 342 340 337 334 331 325 322 319 316 314 305 292 245 190 212 260 135 295 232 233 228 215 216 227 229 217 247 242 217 193 215 230 198 159 170 153
357 355 354 353 355 350 349 349 348 344 341 339 339 336 331 329 325 322 319 315 311 329 129 152 193 244 263 120 221 208 199 202 187 181 206 193 204 227 208 219 211 208 225 211 157 195 159
354 353 352 350 350 347 348 348 346 343 340 338 336 335 330 328 324 324 322 304 158 168 184 221 267 240 240 214 150 221 183 175 168 173 162 192 202 205 223 212 214 206 228 183 187 189 193
351 348 348 347 344 343 343 343 343 342 339 335 334 334 330 328 323 322 322 227 216 187 204 259 297 259 148 150 196 211 177 182 174 180 189 190 203 208 206 214 230 224 208 210 209 158 203
343 342 342 343 342 338 336 337 336 338 338 334 333 334 330 326 323 318 281 309 45 350 294 257 251 262 258 271 258 217 189 190 192 198 201 182 215 210 223 216 229 240 223 219 181 163 219
339 336 336 335 336 335 333 330 332 334 334 331 330 333 331 326 320 293 333 81 18 320 264 269 231 249 229 205 222 228 194 211 198 207 197 208 204 218 213 219 223 224 230 219 203 181 227
333 327 322 325 330 330 330 331 328 330 331 330 328 331 335 332 287 345 287 142 309 315 270 196 199 187 173 180 220 225 209 206 213 213 199 221 219 205 207 226 217 225 224 235 212 191 221
327 322 325 323 325 325 327 328 324 325 326 327 326 324 331 329 305 285 22 317 311 227 279 115 148 133 158 209 27 167 202 201 210 213 204 204 210 197 216 215 218 230 222 225 245 210 239
322 319 321 327 328 327 325 325 323 322 324 324 323 320 327 294 239 263 303 301 238 230 239 183 160 182 183 207 205 130 190 213 226 215 217 230 197 221 221 216 224 226 250 221 233 231 230
316 316 318 317 318 322 322 321 319 320 319 320 319 314 307 273 264 349 300 245 224 238 101 185 195 192 205 174 195 172 186 194 201 201 202 215 202 208 216 214 210 215 209 201 216 223 240
302 308 312 313 318 318 317 317 319 320 318 320 317 311 259 248 230 245 246 222 233 236 215 128 213 192 226 184 212 192 189 201 211 211 208 207 209 209 192 217 202 214 214 220 214 219 217
297 298 304 310 315 316 317 317 320 322 325 325 313 301 266 227 215 222 222 217 221 232 232 240 210 225 224 204 257 207 212 209 206 216 225 208 227 196 213 217 220 200 219 228 244 223 243
305 299 306 312 310 312 316 320 323 326 327 326 312 303 257 207 179 204 225 238 228 256 253 237 228 217 227 206 213 203 202 215 219 211 225 219 236 224 195 212 218 231 208 220 230 238 222
313 303 307 306 305 306 302 314 318 324 327 315 283 292 63 188 196 213 231 224 232 240 251 245 234 242 228 235 229 210 229 185 216 196 217 229 220 203 209 207 208 205 229 218 235 227 244
314 308 299 301 302 302 307 315 319 319 329 305 298 283 86 206 242 226 240 243 284 251 226 244 256 258 240 229 225 221 220 224 185 227 201 214 214 234 215 213 219 211 214 215 223 225 238
303 300 301 293 292 300 302 308 309 314 334 322 287 280 128 252 257 245 244 246 249 256 235 233 231 238 237 237 238 249 233 239 260 242 225 208 226 213 230 215 200 232 224 221 228 239 227
310 307 305 304 300 296 295 299 305 309 309 297 280 290 202 205 259 282 291 290 265 251 257 253 246 230 227 229 230 242 217 220 230 233 315 305 230 219 223 223 218 210 224 238 233 232 233
308 309 305 301 298 294 291 291 297 298 284 289 252 259 41 291 264 324 301 294 288 277 258 247 242 245 222 222 220 217 236 236 216 166 209 219 241 233 234 257 243 232 218 218 235 238 241
303 301 302 304 303 298 296 295 288 287 234 263 286 311 342 291 280 275 264 259 272 275 269 263 239 226 237 234 233 230 226 233 240 231 231 217 243 249 242 241 248 253 236 230 227 234 240
295 295 298 299 300 300 301 302 288 260 182 267 265 268 264 280 258 273 267 266 282 344 285 258 299 315 293 284 307 296 289 285 273 239 229 232 223 218 239 232 244 240 243 248 236 225 232
295 292 293 292 292 291 297 300 295 250 190 237 272 255 270 266 261 244 276 305 294 280 274 289 301 292 278 336 307 257 246 245 245 243 244 224 229 248 249 214 237 253 245 237 242 237 227
298 295 292 289 288 289 290 291 290 265 206 218 193 218 217 264 271 283 279 270 272 285 261 265 282 281 303 290 264 233 232 226 227 228 228 226 235 229 244 232 254 282 358 324 274 242 235
299 294 296 292 289 292 289 284 286 272 233 208 221 195 216 270 258 274 304 307 292 286 277 255 285 309 283 256 238 234 217 207 210 203 213 223 215 242 182 244 234 93 9 342 314 254 238
304 295 292 293 293 293 286 285 285 286 259 195 233 213 230 241 260 266 262 283 323 294 275 314 346 296 239 242 239 216 228 213 204 186 185 180 200 207 189 227 227 26 334 41 238 299 316
310 301 293 291 295 284 277 279 284 281 259 182 242 214 213 248 272 276 275 267 257 275 280 357 304 206 258 246 242 232 231 205 217 185 179 197 208 219 218 225 234 9 336 169 337 304 296
307 310 302 295 295 291 288 273 283 260 214 213 238 216 213 231 275 291 285 273 260 259 268 268 289 314 308 298 301 294 293 262 208 208 162 198 208 169 239 144 88 65 12 293 294 342 32